EW8909 Weather Reports


Display with metric or nautical units.
time (UTC)temp
F
wind
direction
speed
MPH
gust
MPH
rain 1hr
in
rain 24hr
in
rain mn
in
humidity
%
barometer
mb
20260505210006 64 303 1.0 4.0 0.00 0.00 0.00 55 1013.9
20260505204604 63 348 1.0 4.0 0.00 0.00 0.00 55 1014.0
20260505203102 63 334 2.0 4.0 0.00 0.00 0.00 55 1014.0
20260505201552 62 86 1.0 4.0 0.00 0.00 0.00 54 1014.1
20260505200049 62 51 0.0 3.0 0.00 0.00 0.00 53 1014.1
20260505194554 62 12 2.0 4.0 0.00 0.00 0.00 53 1014.2
20260505193039 61 144 0.0 3.0 0.00 0.00 0.00 50 1014.2
20260505191544 60 143 1.0 3.0 0.00 0.00 0.00 50 1014.3
20260505190038 60 71 0.0 2.0 0.00 0.00 0.00 48 1014.3
20260505184531 59 72 1.0 3.0 0.00 0.00 0.00 47 1014.3
20260505183020 59 5 1.0 3.0 0.00 0.00 0.00 45 1014.2
20260505181516 59 9 0.0 3.0 0.00 0.00 0.00 43 1014.1
20260505180013 59 10 1.0 4.0 0.00 0.00 0.00 43 1014.2
20260505174507 58 232 1.0 3.0 0.00 0.00 0.00 40 1014.2
20260505173003 58 111 1.0 3.0 0.00 0.00 0.00 35 1014.2
20260505171625 57 114 1.0 2.0 0.00 0.00 0.00 30 1014.2
20260505170054 56 115 1.0 3.0 0.00 0.00 0.00 29 1014.2
20260505164552 56 115 1.0 3.0 0.00 0.00 0.00 22 1014.2
20260505163048 56 116 0.0 2.0 0.00 0.00 0.00 20 1014.2
20260505161552 55 116 1.0 3.0 0.00 0.00 0.00 19 1014.2
20260505153042 55 116 1.0 2.0 0.00 0.00 0.00 1 1014.2
20260505151538 55 116 0.0 3.0 0.00 0.00 0.00 1 1014.3
20260505130104 54 116 0.0 1.0 0.00 0.00 0.00 1 1013.5
20260505124558 54 116 0.0 0.0 0.00 0.00 0.00 1 1013.4
20260505123058 54 116 0.0 0.0 0.00 0.00 0.00 1 1013.3
20260505121617 54 116 0.0 1.0 0.00 0.00 0.00 1 1013.3
20260505120042 54 116 1.0 2.0 0.00 0.00 0.00 1 1013.3
20260505114538 54 116 1.0 2.0 0.00 0.00 0.00 1 1013.2
20260505113036 54 116 1.0 3.0 0.00 0.00 0.00 1 1013.2
20260505111537 54 116 1.0 2.0 0.00 0.00 0.00 1 1013.1
20260505101512 54 116 0.0 1.0 0.00 0.00 0.00 1 1012.8
20260505100017 54 116 0.0 0.0 0.00 0.00 0.00 1 1012.9
20260505094507 54 116 0.0 1.0 0.00 0.00 0.00 1 1013.0
20260505093100 54 116 0.0 1.0 0.00 0.00 0.00 4 1013.0
20260505091616 54 116 0.0 2.0 0.00 0.00 0.00 8 1012.9
20260505090100 55 116 0.0 2.0 0.00 0.00 0.00 12 1012.9
20260505084551 55 139 2.0 3.0 0.00 0.00 0.00 17 1013.0
20260505083052 55 145 0.0 2.0 0.00 0.00 0.00 19 1013.0
20260505081548 55 145 0.0 3.0 0.00 0.00 0.00 25 1013.0
20260505080050 55 167 1.0 3.0 0.00 0.00 0.00 29 1013.0
20260505074544 56 167 0.0 3.0 0.00 0.00 0.00 32 1013.1
20260505073055 56 250 1.0 3.0 0.00 0.00 0.00 33 1013.1
20260505071544 56 250 0.0 1.0 0.00 0.00 0.00 32 1013.1
20260505070040 56 250 1.0 2.0 0.00 0.00 0.00 34 1013.1
20260505064537 56 250 0.0 2.0 0.00 0.00 0.00 36 1013.1
20260505063043 56 250 0.0 2.0 0.00 0.00 0.00 36 1013.0
20260505061533 56 250 0.0 1.0 0.00 0.00 0.00 36 1012.9
20260505060025 56 250 0.0 1.0 0.00 0.00 0.00 36 1012.7
20260505054522 56 250 1.0 2.0 0.00 0.00 0.00 37 1012.7
20260505053014 57 250 0.0 1.0 0.00 0.00 0.00 37 1012.7
20260505051513 57 250 0.0 2.0 0.00 0.00 0.00 37 1012.6
20260505041601 57 262 0.0 2.0 0.00 0.00 0.00 41 1012.1
20260505040048 57 281 0.0 3.0 0.00 0.00 0.00 44 1011.9
20260505034543 58 281 1.0 4.0 0.00 0.00 0.00 45 1011.7
20260505033040 58 163 1.0 4.0 0.00 0.00 0.00 47 1011.5
20260505031539 58 187 1.0 3.0 0.00 0.00 0.00 48 1011.3
20260505030032 58 200 1.0 4.0 0.00 0.00 0.00 48 1011.2
20260505024527 59 226 1.0 2.0 0.00 0.00 0.00 51 1011.1
20260505023023 59 226 1.0 4.0 0.00 0.00 0.00 52 1011.0
20260505021518 60 175 1.0 4.0 0.00 0.00 0.00 54 1011.0
20260505020014 60 211 1.0 5.0 0.00 0.00 0.00 56 1010.8
20260505014515 61 155 2.0 3.0 0.00 0.00 0.00 57 1010.7
20260505013005 62 277 1.0 8.0 0.00 0.00 0.00 57 1010.6
20260505011503 63 158 2.0 5.0 0.00 0.00 0.00 58 1010.6
20260505010113 63 240 2.0 7.0 0.00 0.00 0.00 58 1010.6
20260505004555 64 156 3.0 7.0 0.00 0.00 0.00 58 1010.6
20260505003052 64 225 2.0 9.0 0.00 0.00 0.00 58 1010.6
20260505001546 66 222 3.0 11.0 0.00 0.00 0.00 56 1010.5
20260505000051 67 305 1.0 9.0 0.00 0.00 0.00 56 1010.4
20260504234537 66 302 2.0 8.0 0.00 0.00 0.00 56 1010.5
20260504233033 65 267 1.0 8.0 0.00 0.00 0.00 57 1010.6
20260504231532 65 312 3.0 14.0 0.00 0.00 0.00 56 1010.6
20260504230024 66 300 3.0 10.0 0.00 0.00 0.00 56 1010.6
20260504224524 65 338 2.0 4.0 0.00 0.00 0.00 56 1010.8
20260504223015 66 5 1.0 5.0 0.00 0.00 0.00 56 1011.0
20260504221511 66 32 1.0 5.0 0.00 0.00 0.00 55 1011.1
20260504220005 65 328 3.0 8.0 0.00 0.00 0.00 54 1011.3
20260504214501 64 22 1.0 4.0 0.00 0.00 0.00 54 1011.3
20260504213102 64 49 3.0 5.0 0.00 0.00 0.00 54 1011.3
20260504211558 64 88 1.0 4.0 0.00 0.00 0.00 54 1011.4